Flag for U.S.A. Weather past 2 weeks in Warminster Township, Pennsylvania, U.S.A.

Now
65 °F

Partly cloudy.


Feels Like: 65 °F
Forecast: 64 / 85 °F
Wind: No wind

Location: Doylestown Airport

Current Time: Jul 4, 2015 at 10:47:25 PM

Latest Report: Jul 4, 2015 at 9:54 PM


Visibility: 10 mi

Pressure: 30.01 "Hg

Humidity: 76%

Dew point: 57 °F

Location of Warminster TownshipLocation

Historic Weather in Warminster Township — Graph

°F

Warminster Township temperature yesterday

Maximum temperature yesterday: 78 °F (at 1:54 PM)
Minimum temperature yesterday: 60 °F (at 5:54 AM)
Average temperature yesterday: 70 °F

Past Weeks' High & Low Weather Summary

 TemperatureHumidityPressure
High88 °F (Jun 23, 2:54 PM)100% (Jun 20, 8:54 PM)30.09 "Hg (Jun 20, 8:54 PM)
Low57 °F (Jun 27, 4:54 PM)40% (Jun 22, 4:54 PM)29.64 "Hg (Jun 28, 5:54 AM)
Average70 °F75%29.91 "Hg
* Reported Jun 19 8:54 PM — Jul 4 8:54 PM, Warminster Township, Weather by CustomWeather, © 2015

Note: Actual official high and low records may vary slightly from our data, if they occured in-between our weather recording intervals... More about our weather records

Advertising

Warminster Township weather history for previous 24 hours

 ConditionsComfort  
Time TempWeatherWind HumidityBarometerVisibility
8:54 PM
Sat, Jul 4
67 °FMore clouds than sun.5 mph71%29.98 "Hg10 mi
7:54 PM68 °FMostly cloudy.No wind76%29.98 "Hg10 mi
6:54 PM70 °FOvercast.No wind68%29.95 "Hg10 mi
5:54 PM71 °FOvercast.3 mph68%29.94 "Hg10 mi
4:54 PM72 °FOvercast.N/A66%29.93 "Hg10 mi
3:54 PM72 °FBroken clouds.5 mph68%29.93 "Hg10 mi
2:54 PM71 °FBroken clouds.N/A73%29.94 "Hg10 mi
1:54 PM70 °FPassing clouds.7 mph76%29.94 "Hg10 mi
12:54 PM69 °FLight rain. Partly sunny.9 mph84%29.95 "Hg10 mi
11:54 AM67 °FLight rain. Overcast.9 mph79%29.96 "Hg10 mi
10:54 AM69 °FLight rain. Overcast.8 mph81%29.93 "Hg10 mi
9:54 AM69 °FOvercast.6 mph87%29.94 "Hg10 mi
8:54 AM68 °FOvercast.6 mph87%29.92 "Hg10 mi
7:54 AM66 °FOvercast.No wind93%29.92 "Hg10 mi
6:54 AM65 °FMostly cloudy.No wind94%29.91 "Hg10 mi
5:54 AM65 °FOvercast.3 mph97%29.92 "Hg10 mi
4:54 AM65 °FPassing clouds.No wind97%29.92 "Hg10 mi
3:54 AM66 °FOvercast.No wind90%29.93 "Hg10 mi
2:54 AM67 °FOvercast.No wind87%29.93 "Hg10 mi
1:54 AM67 °FLight rain. Overcast.5 mph87%29.94 "Hg10 mi
12:54 AM68 °FPartly cloudy.No wind84%29.96 "Hg10 mi
11:54 PM
Fri, Jul 3
69 °FPassing clouds.3 mph81%29.94 "Hg10 mi
10:54 PM70 °FPassing clouds.5 mph79%29.95 "Hg10 mi
Weather by CustomWeather, © 2015

See weather overviewHow to use our weather pages